Home > Weather > Acworth > Past weeks

Flag for USA Past Weather in Acworth, Georgia, USA — Yesterday and Last 2 Weeks

Now
74 °F

Clear.


Feels Like: 73 °F
Forecast: 74 / 89 °F
Wind: No wind

Location: Cartersville Airport

Current Time: Jul 28, 2016 at 12:58:45 AM

Latest Report: Jul 27, 2016 at 11:53 PM


Visibility: 10 mi

Pressure: 30.00 "Hg

Humidity: 85%

Dew Point: 69 °F

Location of AcworthLocation

Past Weather in Acworth — Graph

°F

Acworth Temperature Yesterday

Maximum temperature yesterday: 90 °F (at 5:53 PM)
Minimum temperature yesterday: 72 °F (at 4:53 AM)
Average temperature yesterday: 80 °F

High & Low Weather Summary for the Past Weeks

 TemperatureHumidityPressure
High96 °F (Jul 21, 2:53 PM)100% (Jul 24, 12:53 AM)30.25 "Hg (Jul 24, 12:53 AM)
Low68 °F (Jul 13, 3:53 AM)37% (Jul 25, 2:53 PM)29.92 "Hg (Jul 25, 6:53 PM)
Average80 °F75%30.06 "Hg
* Reported Jul 12 11:53 PM — Jul 27 11:53 PM, Acworth, Weather by CustomWeather, © 2016

Note: Actual official high and low records may vary slightly from our data, if they occured in-between our weather recording intervals... More about our weather records

Advertising

Acworth Weather History for the Previous 24 Hours

Scroll right to see more
 ConditionsComfort  
Time TempWeatherWind HumidityBarometerVisibility
11:53 PM
Wed, Jul 27
74 °FClear.No wind85%30.00 "Hg10 mi
10:53 PM78 °FClear.No wind71%30.00 "Hg10 mi
9:53 PM81 °FClear.5 mph62%29.98 "Hg10 mi
8:53 PM84 °FPartly sunny.5 mph61%29.95 "Hg10 mi
7:53 PM87 °FSunny.5 mph53%29.96 "Hg10 mi
6:53 PM89 °FSunny.5 mph53%29.96 "Hg10 mi
5:53 PM90 °FSunny.5 mph48%29.96 "Hg10 mi
4:53 PM89 °FPartly sunny.7 mph55%29.96 "Hg10 mi
3:53 PM87 °FPartly sunny.6 mph61%29.99 "Hg10 mi
2:53 PM88 °FPartly sunny.9 mph59%30.00 "Hg10 mi
1:53 PM88 °FScattered clouds.9 mph61%30.02 "Hg10 mi
12:53 PM84 °FOvercast.3 mph67%30.05 "Hg10 mi
11:53 AM82 °FOvercast.7 mph72%30.05 "Hg10 mi
10:53 AM81 °FPartly sunny.3 mph72%30.04 "Hg10 mi
9:53 AM79 °FOvercast.No wind79%30.05 "Hg10 mi
8:53 AM77 °FOvercast.No wind88%30.05 "Hg10 mi
7:53 AM76 °FOvercast.No wind91%30.03 "Hg10 mi
6:53 AM72 °FPassing clouds.No wind97%30.02 "Hg10 mi
5:53 AM73 °FClear.No wind94%30.01 "Hg10 mi
4:53 AM72 °FClear.No wind97%29.99 "Hg10 mi
3:53 AM73 °FClear.No wind94%29.98 "Hg10 mi
2:53 AM73 °FClear.No wind94%29.99 "Hg10 mi
1:53 AM76 °FPassing clouds.No wind85%30.01 "Hg10 mi
12:53 AM76 °FClear.No wind85%30.02 "Hg10 mi
Weather by CustomWeather, © 2016

See weather overviewHow to use our weather pages